Regional Weather Roundup
Issued by NWS Charleston, SC

Home | Current Version | Previous Version | Text Only | Print | Product List | Glossary On
Versions: 1 2 3 4 5 6 7 8 9 10 11 12 13 14 15 16 17 18 19 20 21 22 23 24 25 26 27 28 29 30 31 32 33 34 35 36 37 38 39 40 41 42 43 44 45 46 47 48 49 50
000
ASUS42 KCHS 301825
RWRCHS

REGIONAL WEATHER ROUNDUP
NATIONAL WEATHER SERVICE CHARLESTON SC
200 PM EDT TUE SEP 30 2014

NOTE: "FAIR" INDICATES FEW OR NO CLOUDS BELOW 12,000 FEET WITH NO
SIGNIFICANT WEATHER AND/OR OBSTRUCTIONS TO VISIBILITY.

NOT ALL STATIONS ARE QUALITY CONTROLLED BY THE NATIONAL
WEATHER SERVICE. USE DATA WITH CAUTION...ESPECIALLY
DEWPOINT OBSERVATIONS.

SCZ027-030-031-034>040-042>050-301900-
...SOUTH CAROLINA...

CITY           SKY/WX    TMP DP  RH WIND       PRES   REMARKS
N CHARLESTON   MOSUNNY   81  62  52 VRB5      29.87F
6HR MIN TEMP:  66; 6HR MAX TEMP:  81;

WATERFRONT PRK   N/A     75 N/A N/A N9          N/A
FORT JOHNSON   NOT AVBL
MOUNT PLEASANT FAIR      81  63  54 N6        29.85F
JOHNS ISLAND   CLEAR     79  77  94 NE7       29.86F
PINOPOLIS        N/A     75  63  64 N5        29.81F
MONCKS CORNER  FAIR      79  66  65 NW5       29.87F
SUMMERVILLE    FAIR      79  63  57 E6        29.87F
BEAUFORT MCAS  MOSUNNY   81  64  56 NE8       29.87F
6HR MIN TEMP:  65; 6HR MAX TEMP:  81;

BEAUFORT ARPT  FAIR      79  66  65 NE7       29.86F
HILTON HEAD IS MOSUNNY   75  64  69 N7        29.89F
GEORGETOWN     NOT AVBL
WALTERBORO     CLEAR     81  55  41 N3        29.88F
ORANGEBURG     SUNNY     80  59  48 N5        29.89F
6HR MIN TEMP:  63; 6HR MAX TEMP:  80;

BARNWELL       FAIR      79  63  57 SE3       29.89F
AIKEN          FAIR      79  64  61 CALM      29.92F
MANNING        FAIR      81  66  61 N8        29.87F
KINGSTREE      NOT AVBL
COLUMBIA       MOSUNNY   82  61  48 NW5       29.88F
6HR MIN TEMP:  65; 6HR MAX TEMP:  82;

SUMTER         MOSUNNY   80  60  50 VRB3      29.86F
6HR MIN TEMP:  62; 6HR MAX TEMP:  81;

FLORENCE       PTSUNNY   79  64  60 N7        29.87F
6HR MIN TEMP:  62; 6HR MAX TEMP:  80;

MYRTLE BEACH   SUNNY     81  61  50 NE12      29.86F
N MYRTLE BEACH SUNNY     81  62  52 NE9       29.85F
6HR MIN TEMP:  64; 6HR MAX TEMP:  81;


$$

GAZ063-065-086>088-099>101-113>116-118-119-134-136>141-150-301900-
...GEORGIA...

CITY           SKY/WX    TMP DP  RH WIND       PRES   REMARKS
SAVANNAH ARPT  PTSUNNY   80  65  59 N7        29.88F
6HR MIN TEMP:  67; 6HR MAX TEMP:  80;

HUNTER AAF     PTSUNNY   77  68  73 N8        29.86F
6HR MIN TEMP:  67; 6HR MAX TEMP:  78; 6HR PCP: TRACE;

FORT STEWART   MOSUNNY   77  66  69 CALM      29.87F
6HR MIN TEMP:  68; 6HR MAX TEMP:  75; 6HR PCP: TRACE;

STATESBORO     NOT AVBL
SYLVANIA       CLEAR     83  68  61 CALM      29.89F
CLAXTON        FAIR      81  66  61 E3        29.88F
THOMSON        SUNNY     80  70  71 N3        29.95F
AUGUSTA-BUSH   SUNNY     80  59  48 CALM      29.89F
6HR MIN TEMP:  63; 6HR MAX TEMP:  82;

AUGUSTA-DANIEL SUNNY     80  62  54 E6        29.91F
SWAINSBORO     CLOUDY    81  68  65 N6        29.90F
VIDALIA        CLOUDY    79  68  69 N3        29.89F
ALMA           PTSUNNY   78  68  71 VRB3      29.89F
6HR MIN TEMP:  67; 6HR MAX TEMP:  79;

WAYCROSS       CLOUDY    78  72  82 NE6       29.88F
JESUP          MOCLDY    81  72  74 CALM      29.88F
BRUNSWICK      CLOUDY    79  68  69 N3        29.88F
SAINT SIMONS   PTSUNNY   78  68  71 NE10      29.87F
6HR MIN TEMP:  69; 6HR MAX TEMP:  79;


$$

SCZ027-028-034-036>038-045-046-048>050-GAZ119-141-301900-
...LAKE AND SUPPLEMENTAL COASTAL OBSERVATIONS...

STATION/POSITION TIME  TEMP    WIND        PRES    WAVE   SWELL
                       AIR SEA DIR/SP/G            HT/PER HT/PER/DIR
                 (UTC) (F)     (DEG/KT/KT) (MB)    (FT/S) (FT/S/D)
UPR LAKE MARION  NOT AVBL
WINYAH BAY       1700   73      70/  8     1012.0S
LAKE MURRAY      1800   75     200/  5/  6 1011.5F
ACE BASIN NERRS  1700   78      10/  3     1013.0S
FORT PULASKI     1800   74      40/  8/ 11 1011.8F
SAPELO ISLAND    NOT AVBL

$$

ANZ835-935-AMZ111-154-330-350-352-354-374-450-454-472-301900-
...C-MAN AND BUOY OBSERVATIONS...

STATION/POSITION TIME  TEMP    WIND        PRES    WAVE   SWELL
                       AIR SEA DIR/SP/G            HT/PER HT/PER/DIR
                 (UTC) (F)     (DEG/KT/KT) (MB)    (FT/S) (FT/S/D)
FOLLY BEACH CMAN 1800   75      60/  8/  9 1011.7F
BUOY 41004       1800   75 81   20/ 16/ 19 1009.8F   4/ 6   2/14
BUOY 41008       1800   73 79   10/ 14/ 17 1011.1F   4/ 6   2/110/ 8
5E ST. MARYS GA  1800      79                N/A     4/ 5
FRYING PAN BUOY  NOT AVBL
BUOY 41025       1700   74     360/ 17/ 21 1010.6F   3/ 8   2/ 70/ 8
CAPE LOOKOUT NC  1800   74      40/ 14/ 16 1010.6F
BUOY 41002       1659   75 80  150/ 12/ 14 1008.6F   3/ 7   3/ 60/ 7
BUOY 41010       1800   82 84  280/ 17/ 21 1009.1F   4/ 5   2/ 80/ 9
BUOY 41012       NOT AVBL
ST AUGUSTINE FL  1800   74     340/ 11/ 13 1011.1F
CAPERS NEARSHORE 1700   74      40/ 10/ 12   N/A
FRIPP NEARSHORE  NOT AVBL


$$


USA.gov is the U.S. government's official web portal to all federal, state and local government web resources and services.